Location: Stony Creek
(40.9500°S, 175.8500°E)
Time: 08:52:53
(UTC+00:00)

Cosmos 1025 Rocket - Pass Details

Date: 15 May 2026
Orbit: 587 x 608 km, 82.5° (Epoch: 10 June)

Event Time Altitude Azimuth Distance (km) Brightness Sun altitude
Rises 17:51:08 0° 190° (S) 2,868 6.3 -16.3°
Reaches altitude 10° 17:53:22 10° 192° (SSW) 1,955 5.4 -15.9°
Maximum altitude 17:57:40 73° 276° (W) 630 2.9 -15.1°
Drops below altitude 10° 18:01:54 10° 360° (N) 1,920 5.7 -14.4°
Sets 18:04:05 0° 1° (N) 2,811 6.6 -14.0°
